Weather History for Hickory, NC

Change the Weather History Date:

Monday, November 1, 2010

  Actual Average Record
Temperature  
Mean Temperature 54 °F -  
Max Temperature 62 °F 66 °F 83 °F (1950)
Min Temperature 46 °F 46 °F 29 °F (1954)
Degree Days  
Heating Degree Days 12    
Growing Degree Days 4 (Base 50)    
Moisture  
Dew Point 38 °F    
Average Humidity 61    
Maximum Humidity 90    
Minimum Humidity 39    
Precipitation  
Precipitation 0.00 in - - ()
Sea Level Pressure  
Sea Level Pressure 30.22 in    
Wind  
Wind Speed 4 mph (NE)    
Max Wind Speed 13 mph    
Max Gust Speed 18 mph    
Visibility 10 miles    
Events      
Averages and records for this station are not official NWS values.
T = Trace of Precipitation, MM = Missing Value Source: NWS Daily Summary

Daily Weather History Graph

Daily Weather History Graph

Search for Another Location

Airport:

Trip Planner

Search our weather history database for the weather conditions in past years. The results will help you decide how hot, cold, wet, or windy it might be!

Date:

Astronomy

Nov. 01, 2010 Rise Set
Actual Time 7:47 AM EDT 6:30 PM EDT
Civil Twilight 7:21 AM EDT 6:56 PM EDT
Nautical Twilight 6:50 AM EDT 7:26 PM EDT
Astronomical Twilight 6:21 AM EDT 7:56 PM EDT
Moon 2:32 AM EDT (11/1) 3:28 PM EDT (11/1)
Length of Visible Light 11h 35m
Length of Day
10h 42m
Waning Crescent, 26% of the Moon is Illuminated
Nov 1
Waning Crescent
Nov 6
New
Nov 13
First Quarter
Nov 21
Full
Nov 28
Last Quarter

Hourly Weather History & Observations

Time (EDT) Temp. Windchill Dew Point Humidity Pressure Visibility Wind Dir Wind Speed Gust Speed Precip Events Conditions
12:53 AM 48.0 °F - 42.1 °F 80% 30.07 in 10.0 mi NNW 3.5 mph - N/A   Clear
1:53 AM 50.0 °F - 42.1 °F 74% 30.09 in 10.0 mi Calm Calm - N/A   Clear
2:53 AM 48.0 °F - 43.0 °F 83% 30.10 in 10.0 mi Calm Calm - N/A   Clear
3:53 AM 46.9 °F - 44.1 °F 90% 30.11 in 10.0 mi Calm Calm - N/A   Clear
4:53 AM 46.0 °F 41.9 °F 41.0 °F 83% 30.14 in 10.0 mi NE 8.1 mph - N/A   Clear
5:53 AM 48.0 °F - 39.0 °F 71% 30.17 in 10.0 mi NE 9.2 mph - N/A   Clear
6:53 AM 48.0 °F - 37.9 °F 68% 30.21 in 10.0 mi NE 6.9 mph - N/A   Clear
7:53 AM 46.9 °F - 36.0 °F 66% 30.23 in 10.0 mi NE 6.9 mph - N/A   Clear
8:53 AM 48.9 °F - 35.1 °F 59% 30.27 in 10.0 mi NNE 6.9 mph - N/A   Clear
9:53 AM 51.1 °F - 32.0 °F 48% 30.29 in 10.0 mi NE 12.7 mph 18.4 mph N/A   Clear
10:53 AM 54.0 °F - 32.0 °F 43% 30.28 in 10.0 mi NE 8.1 mph - N/A   Clear
11:53 AM 55.0 °F - 33.1 °F 43% 30.29 in 10.0 mi NNE 8.1 mph - N/A   Clear
12:53 PM 57.0 °F - 35.1 °F 44% 30.26 in - Variable 4.6 mph - N/A   Unknown
1:53 PM 57.9 °F - 35.1 °F 42% 30.23 in 10.0 mi ENE 8.1 mph - N/A   Clear
2:53 PM 60.1 °F - 35.1 °F 39% 30.22 in 10.0 mi East 5.8 mph - N/A   Clear
3:53 PM 60.1 °F - 36.0 °F 41% 30.21 in 10.0 mi Calm Calm - N/A   Clear
4:53 PM 61.0 °F - 37.0 °F 41% 30.22 in 10.0 mi Variable 4.6 mph - N/A   Clear
5:53 PM 57.9 °F - 37.9 °F 47% 30.22 in 10.0 mi East 3.5 mph - N/A   Clear
6:53 PM 54.0 °F - 37.9 °F 55% 30.24 in 10.0 mi Calm Calm - N/A   Clear
7:53 PM 53.1 °F - 39.0 °F 59% 30.26 in 10.0 mi Calm Calm - N/A   Clear
8:53 PM 51.1 °F - 39.0 °F 63% 30.26 in 10.0 mi NE 4.6 mph - N/A   Clear
9:53 PM 48.9 °F - 43.0 °F 80% 30.28 in 10.0 mi NE 3.5 mph - N/A   Clear
10:53 PM 48.0 °F - 43.0 °F 83% 30.30 in 10.0 mi NE 3.5 mph - N/A   Clear
11:53 PM 48.9 °F - 41.0 °F 74% 30.31 in 10.0 mi East 3.5 mph - N/A   Clear